| time (UTC) | temp C | wind direction | speed KPH | gust KPH | rain 1hr cm | rain 24hr cm | rain mn cm | humidity % | barometer mb |
| 20260503010023 | 7 | 16 | 0.0 | 6.4 | 0.00 | 0.28 | 0.28 | 54 | 1013.1 |
| 20260503004527 | 8 | 48 | 0.0 | 4.8 | 0.00 | 0.28 | 0.28 | 53 | 1012.8 |
| 20260503003021 | 8 | 32 | 0.0 | 3.2 | 0.00 | 0.28 | 0.28 | 52 | 1012.6 |
| 20260503001524 | 8 | 11 | 1.6 | 8.0 | 0.00 | 0.28 | 0.28 | 50 | 1012.6 |
| 20260503000020 | 8 | 40 | 3.2 | 8.0 | 0.00 | 0.28 | 0.28 | 49 | 1012.4 |
| 20260502234518 | 9 | 58 | 0.0 | 8.0 | 0.00 | 0.28 | 0.28 | 49 | 1012.4 |
| 20260502233019 | 9 | 346 | 4.8 | 9.7 | 0.00 | 0.28 | 0.28 | 46 | 1012.3 |
| 20260502231518 | 9 | 340 | 3.2 | 9.7 | 0.00 | 0.28 | 0.28 | 46 | 1012.2 |
| 20260502230017 | 10 | 12 | 4.8 | 14.5 | 0.00 | 0.28 | 0.28 | 46 | 1012.3 |
| 20260502224516 | 10 | 3 | 6.4 | 12.9 | 0.00 | 0.28 | 0.28 | 46 | 1012.2 |
| 20260502223016 | 10 | 327 | 6.4 | 11.3 | 0.00 | 0.28 | 0.28 | 45 | 1011.9 |
| 20260502221516 | 10 | 300 | 4.8 | 12.9 | 0.00 | 0.28 | 0.28 | 46 | 1012.1 |
| 20260502220016 | 10 | 8 | 4.8 | 14.5 | 0.00 | 0.28 | 0.28 | 46 | 1012.0 |
| 20260502214514 | 10 | 321 | 3.2 | 11.3 | 0.00 | 0.28 | 0.28 | 47 | 1011.8 |
| 20260502213014 | 10 | 30 | 3.2 | 14.5 | 0.00 | 0.28 | 0.28 | 45 | 1011.7 |
| 20260502211529 | 11 | 352 | 3.2 | 14.5 | 0.00 | 0.28 | 0.28 | 46 | 1011.6 |
| 20260502210016 | 11 | 25 | 1.6 | 6.4 | 0.00 | 0.28 | 0.28 | 46 | 1011.4 |
| 20260502204511 | 11 | 76 | 6.4 | 12.9 | 0.00 | 0.28 | 0.28 | 45 | 1011.4 |
| 20260502203013 | 11 | 316 | 6.4 | 16.1 | 0.00 | 0.28 | 0.28 | 45 | 1011.5 |
| 20260502201510 | 12 | 28 | 6.4 | 16.1 | 0.00 | 0.28 | 0.28 | 43 | 1011.6 |
| 20260502200009 | 11 | 309 | 4.8 | 16.1 | 0.00 | 0.28 | 0.28 | 45 | 1011.7 |
| 20260502194506 | 11 | 70 | 1.6 | 12.9 | 0.00 | 0.28 | 0.28 | 47 | 1011.8 |
| 20260502193005 | 11 | 354 | 6.4 | 17.7 | 0.00 | 0.28 | 0.28 | 45 | 1012.2 |
| 20260502191505 | 12 | 266 | 3.2 | 16.1 | 0.00 | 0.28 | 0.28 | 45 | 1012.3 |
| 20260502190101 | 12 | 306 | 3.2 | 12.9 | 0.00 | 0.28 | 0.28 | 46 | 1012.4 |
| 20260502184601 | 11 | 314 | 3.2 | 16.1 | 0.00 | 0.28 | 0.28 | 49 | 1012.6 |
| 20260502183107 | 11 | 302 | 1.6 | 9.7 | 0.00 | 0.28 | 0.28 | 48 | 1012.7 |
| 20260502181557 | 11 | 32 | 4.8 | 11.3 | 0.00 | 0.28 | 0.28 | 49 | 1013.0 |
| 20260502163050 | 10 | 311 | 6.4 | 27.4 | 0.00 | 0.28 | 0.28 | 57 | 1013.4 |
| 20260502161543 | 9 | 70 | 3.2 | 17.7 | 0.00 | 0.28 | 0.28 | 61 | 1013.5 |
| 20260502151539 | 8 | 332 | 3.2 | 12.9 | 0.00 | 0.28 | 0.28 | 71 | 1013.7 |
| 20260502123025 | 5 | 323 | 3.2 | 12.9 | 0.00 | 0.28 | 0.28 | 94 | 1013.9 |
| 20260502121523 | 5 | 23 | 8.0 | 20.9 | 0.00 | 0.28 | 0.28 | 94 | 1013.5 |
| 20260502114519 | 5 | 284 | 3.2 | 9.7 | 0.00 | 0.28 | 0.28 | 95 | 1013.6 |
| 20260502113018 | 6 | 334 | 1.6 | 11.3 | 0.00 | 0.28 | 0.28 | 95 | 1013.3 |
| 20260502111515 | 6 | 309 | 1.6 | 6.4 | 0.00 | 0.28 | 0.28 | 95 | 1013.2 |
| 20260502110015 | 6 | 281 | 0.0 | 4.8 | 0.00 | 0.28 | 0.28 | 95 | 1013.4 |
| 20260502104521 | 5 | 289 | 0.0 | 3.2 | 0.00 | 0.28 | 0.28 | 95 | 1013.2 |
| 20260502103015 | 5 | 319 | 0.0 | 3.2 | 0.00 | 0.28 | 0.28 | 95 | 1012.7 |
| 20260502101530 | 5 | 280 | 0.0 | 1.6 | 0.00 | 0.28 | 0.28 | 94 | 1012.6 |
| 20260502091506 | 6 | 279 | 0.0 | 1.6 | 0.18 | 0.28 | 0.28 | 93 | 1012.1 |
| 20260502080109 | 6 | 9 | 0.0 | 4.8 | 0.10 | 0.10 | 0.10 | 92 | 1012.6 |
| 20260502070100 | 7 | 23 | 1.6 | 6.4 | 0.00 | 0.00 | 0.00 | 90 | 1012.7 |
| 20260502064552 | 7 | 280 | 1.6 | 9.7 | 0.00 | 0.00 | 0.00 | 90 | 1012.9 |
| 20260502063057 | 7 | 311 | 3.2 | 9.7 | 0.00 | 0.00 | 0.00 | 89 | 1013.3 |
| 20260502061545 | 7 | 320 | 3.2 | 8.0 | 0.00 | 0.00 | 0.00 | 88 | 1013.2 |
| 20260502060044 | 7 | 351 | 1.6 | 6.4 | 0.00 | 0.00 | 0.00 | 87 | 1013.3 |
| 20260502054543 | 7 | 8 | 1.6 | 6.4 | 0.00 | 0.00 | 0.00 | 86 | 1013.3 |
| 20260502053040 | 7 | 331 | 3.2 | 6.4 | 0.00 | 0.00 | 0.00 | 85 | 1013.3 |
| 20260502051551 | 8 | 345 | 0.0 | 1.6 | 0.00 | 0.00 | 0.00 | 83 | 1013.2 |
| 20260502050037 | 8 | 343 | 0.0 | 0.0 | 0.00 | 0.00 | 0.00 | 82 | 1013.2 |
| 20260502044534 | 8 | 343 | 0.0 | 0.0 | 0.00 | 0.00 | 0.00 | 80 | 1013.4 |
| 20260502043031 | 8 | 343 | 0.0 | 0.0 | 0.00 | 0.00 | 0.00 | 77 | 1013.1 |
| 20260502041528 | 9 | 343 | 0.0 | 0.0 | 0.00 | 0.00 | 0.00 | 74 | 1013.1 |
| 20260502040028 | 9 | 343 | 0.0 | 0.0 | 0.00 | 0.00 | 0.00 | 73 | 1012.9 |
| 20260502034528 | 9 | 343 | 0.0 | 1.6 | 0.00 | 0.00 | 0.00 | 72 | 1012.8 |
| 20260502033025 | 10 | 1 | 0.0 | 1.6 | 0.00 | 0.00 | 0.00 | 71 | 1012.8 |
| 20260502031524 | 10 | 328 | 0.0 | 3.2 | 0.00 | 0.00 | 0.00 | 72 | 1012.9 |
| 20260502030024 | 10 | 330 | 0.0 | 4.8 | 0.00 | 0.00 | 0.00 | 71 | 1012.9 |
| 20260502024523 | 10 | 327 | 0.0 | 4.8 | 0.00 | 0.00 | 0.00 | 71 | 1013.1 |
| 20260502023022 | 10 | 319 | 1.6 | 0.0 | 0.00 | 0.00 | 0.00 | 71 | 1013.3 |
| 20260502021522 | 10 | 339 | 0.0 | 4.8 | 0.00 | 0.00 | 0.00 | 71 | 1013.3 |
| 20260502020021 | 10 | 317 | 0.0 | 3.2 | 0.00 | 0.00 | 0.00 | 70 | 1013.3 |
| 20260502014521 | 10 | 319 | 1.6 | 3.2 | 0.00 | 0.00 | 0.00 | 70 | 1013.4 |
| 20260502013020 | 10 | 354 | 0.0 | 4.8 | 0.00 | 0.00 | 0.00 | 70 | 1013.4 |
| 20260502011524 | 10 | 46 | 0.0 | 3.2 | 0.00 | 0.00 | 0.00 | 70 | 1013.1 |